Date String (YYYY-MM-DD hh:mm:ss) UTC,Instrument flags,Ambient pressure (hPa),Sample flow (lpm),Bypass flow (lpm),Sample temperature (°C),Ambient temperature (°C),ASC tube jacket temperature (°C),LED temperature (°C),Box temperature (°C),Sample RH (%),Span deviation,Mass concentration (μg/m³),Mass concentration (μg/m³),Mass concentration (μg/m³)
DateTimeUTC,F1_M11,P_M11,Q1_M11,Q2_M11,T1_M11,T2_M11,T3_M11,T4_M11,T5_M11,U1_M11,ZSPAN_M11,X2_M11,X0_M11,X1_M11
2023-04-24 06:00:00,,0826.8,5.00,0.00,25.3,23.6,00.0,33.7,26.9,12.4,0003.6,0007.54,0011.29,0007.00
2023-04-24 06:01:00,,0826.8,5.00,0.00,25.3,23.6,00.0,33.7,26.9,12.5,0002.6,0007.52,0011.29,0006.99
2023-04-24 06:02:00,,0826.8,5.00,0.00,25.3,23.6,00.0,33.7,26.9,12.5,0002.2,0007.55,0011.37,0006.99
2023-04-24 06:03:00,,0826.8,4.99,0.00,25.3,23.6,00.0,33.7,26.9,12.5,0001.6,0007.58,0011.45,0007.00
2023-04-24 06:04:00,,0826.7,5.00,0.00,25.2,23.6,00.0,33.7,26.9,12.5,0000.8,0007.60,0011.52,0007.01
2023-04-24 06:05:00,,0826.7,5.00,0.00,25.2,23.6,00.0,33.6,26.8,12.5,0000.2,0007.59,0011.52,0007.00
2023-04-24 06:06:00,,0826.7,5.01,0.00,25.2,23.5,00.0,33.6,26.8,12.5,0000.4,0007.53,0011.43,0006.98
2023-04-24 06:07:00,,0826.6,5.00,0.00,25.2,23.5,00.0,33.6,26.8,12.4,0000.3,0007.50,0011.39,0006.96
2023-04-24 06:08:00,,0826.6,5.00,0.00,25.2,23.5,00.0,33.6,26.8,12.3,0000.5,0007.50,0011.47,0006.93
2023-04-24 06:09:00,,0826.6,5.00,0.00,25.2,23.5,00.0,33.6,26.8,12.3,0000.5,0007.50,0010.99,0006.91
2023-04-24 06:10:00,,0826.6,5.00,0.00,25.2,23.5,00.0,33.6,26.8,12.3,-000.0,0007.50,0010.97,0006.91
2023-04-24 06:11:00,,0826.6,4.99,0.00,25.2,23.5,00.0,33.6,26.8,12.2,-000.4,0007.49,0011.00,0006.91
2023-04-24 06:12:00,,0826.6,5.00,0.00,25.2,23.5,00.0,33.6,26.8,12.3,0000.5,0007.45,0011.35,0006.89
2023-04-24 06:13:00,,0826.6,5.00,0.00,25.2,23.5,00.0,33.6,26.8,12.2,0000.5,0007.41,0011.33,0006.88
2023-04-24 06:14:00,,0826.6,5.00,0.00,25.2,23.5,00.0,33.6,26.8,12.3,0001.1,0007.33,0011.15,0006.86
2023-04-24 06:15:00,,0826.6,5.00,0.00,25.2,23.5,00.0,33.6,26.8,12.3,0002.0,0007.29,0011.08,0006.84
2023-04-24 06:16:00,,0826.6,5.00,0.00,25.1,23.5,00.0,33.6,26.8,12.2,0000.9,0007.32,0011.21,0006.83
2023-04-24 06:17:00,,0826.6,5.00,0.00,25.2,23.5,00.0,33.5,26.8,12.3,0000.4,0007.34,0011.32,0006.83
2023-04-24 06:18:00,,0826.6,5.00,0.00,25.1,23.5,00.0,33.5,26.7,12.5,0001.5,0007.34,0011.28,0006.83
2023-04-24 06:19:00,,0826.6,5.00,0.00,25.1,23.4,00.0,33.5,26.8,12.4,0000.8,0007.33,0011.27,0006.83
2023-04-24 06:20:00,,0826.6,5.00,0.00,25.1,23.4,00.0,33.5,26.8,12.4,0001.6,0007.30,0011.32,0006.82
2023-04-24 06:21:00,,0826.6,5.00,0.00,25.1,23.4,00.0,33.5,26.7,12.5,0002.8,0007.30,0011.52,0006.81
2023-04-24 06:22:00,,0826.5,5.00,0.00,25.1,23.4,00.0,33.5,26.7,12.5,0002.8,0007.32,0011.51,0006.81
2023-04-24 06:23:00,,0826.5,5.01,0.00,25.1,23.4,00.0,33.5,26.7,12.5,0001.8,0007.33,0011.13,0006.81
2023-04-24 06:24:00,,0826.5,5.00,0.00,25.1,23.4,00.0,33.5,26.7,12.6,0001.8,0007.33,0011.11,0006.78
2023-04-24 06:25:00,,0826.5,4.99,0.00,25.1,23.4,00.0,33.5,26.7,12.6,0001.5,0007.35,0011.15,0006.78
2023-04-24 06:26:00,,0826.5,4.99,0.00,25.1,23.4,00.0,33.5,26.7,12.6,0001.4,0007.37,0011.18,0006.78
2023-04-24 06:27:00,,0826.4,5.00,0.00,25.1,23.4,00.0,33.5,26.7,12.6,0002.2,0007.37,0011.14,0006.78
2023-04-24 06:28:00,,0826.5,5.00,0.00,25.1,23.4,00.0,33.5,26.7,12.6,0002.2,0007.37,0011.12,0006.79
2023-04-24 06:29:00,,0826.4,5.00,0.00,25.1,23.4,00.0,33.5,26.7,12.6,0002.5,0007.39,0011.22,0006.79
2023-04-24 06:30:00,,0826.4,5.00,0.00,25.1,23.3,00.0,33.4,26.7,12.6,0002.5,0007.40,0011.89,0006.80
2023-04-24 06:31:00,,0826.4,5.00,0.00,25.0,23.3,00.0,33.4,26.6,12.6,0001.6,0007.38,0012.02,0006.79
2023-04-24 06:32:00,,0826.4,5.00,0.00,25.0,23.3,00.0,33.4,26.7,12.6,0000.9,0007.39,0012.08,0006.77
2023-04-24 06:33:00,,0826.4,5.00,0.00,25.0,23.3,00.0,33.4,26.7,12.5,0001.4,0007.36,0012.03,0006.74
2023-04-24 06:34:00,,0826.4,5.00,0.00,25.0,23.3,00.0,33.4,26.6,12.5,0002.3,0007.37,0012.10,0006.73
2023-04-24 06:35:00,,0826.4,5.00,0.00,25.0,23.3,00.0,33.4,26.6,12.5,0002.4,0007.32,0011.99,0006.70
2023-04-24 06:36:00,,0826.4,5.00,0.00,25.0,23.3,00.0,33.4,26.6,12.5,0001.1,0007.28,0011.99,0006.67
2023-04-24 06:37:00,,0826.4,5.00,0.00,25.0,23.3,00.0,33.4,26.6,12.6,0002.1,0007.24,0011.98,0006.63
2023-04-24 06:38:00,,0826.4,5.00,0.00,25.0,23.3,00.0,33.4,26.6,12.5,0001.5,0007.16,0011.89,0006.58
2023-04-24 06:39:00,,0826.4,5.00,0.00,25.0,23.3,00.0,33.4,26.6,12.5,0001.8,0007.09,0011.80,0006.52
2023-04-24 06:40:00,,0826.4,5.00,0.00,25.0,23.3,00.0,33.4,26.6,12.5,0001.3,0007.02,0011.59,0006.47
2023-04-24 06:41:00,,0826.4,4.99,0.00,25.0,23.3,00.0,33.4,26.6,12.5,0001.2,0006.94,0010.97,0006.42
2023-04-24 06:42:00,,0826.4,5.01,0.00,24.9,23.3,00.0,33.4,26.6,12.4,0002.1,0006.92,0010.69,0006.39
2023-04-24 06:43:00,,0826.4,5.01,0.00,24.9,23.3,00.0,33.3,26.6,12.4,0003.0,0006.87,0010.17,0006.36
2023-04-24 06:44:00,,0826.4,5.01,0.00,24.9,23.3,00.0,33.3,26.6,12.5,0003.3,0006.83,0010.18,0006.32
2023-04-24 06:45:00,,0826.4,4.99,0.00,24.9,23.3,00.0,33.3,26.6,12.6,0003.6,0006.75,0010.59,0006.27
2023-04-24 06:46:00,,0826.4,4.99,0.00,24.9,23.3,00.0,33.3,26.6,12.6,0003.6,0006.72,0010.73,0006.25
2023-04-24 06:47:00,,0826.4,5.00,0.00,24.9,23.3,00.0,33.3,26.6,12.8,0003.8,0006.71,0010.83,0006.25
2023-04-24 06:48:00,,0826.4,5.00,0.00,24.9,23.3,00.0,33.3,26.6,12.9,0003.6,0006.74,0010.89,0006.26
2023-04-24 06:49:00,,0826.4,5.01,0.00,24.9,23.3,00.0,33.3,26.6,13.0,0004.4,0006.79,0011.28,0006.28
2023-04-24 06:50:00,,0826.4,5.00,0.00,24.9,23.3,00.0,33.3,26.5,13.1,0004.5,0006.81,0012.06,0006.31
2023-04-24 06:51:00,,0826.4,4.99,0.00,24.9,23.3,00.0,33.3,26.5,13.2,0003.3,0006.86,0012.25,0006.34
2023-04-24 06:52:00,,0826.4,4.99,0.00,24.9,23.2,00.0,33.3,26.5,13.3,0003.1,0006.90,0012.26,0006.38
2023-04-24 06:53:00,,0826.4,5.00,0.00,24.9,23.2,00.0,33.3,26.5,13.2,0002.0,0006.95,0012.33,0006.41
2023-04-24 06:54:00,,0826.4,5.00,0.00,24.9,23.3,00.0,33.3,26.5,13.2,0003.5,0006.98,0012.95,0006.44
2023-04-24 06:55:00,,0826.4,5.00,0.00,24.9,23.3,00.0,33.3,26.5,13.3,0002.0,0007.02,0012.90,0006.51
2023-04-24 06:56:00,,0826.4,5.00,0.00,24.9,23.3,00.0,33.3,26.5,13.1,0001.3,0007.09,0012.57,0006.57
2023-04-24 06:57:00,,0826.4,5.00,0.00,24.9,23.3,00.0,33.3,26.5,12.9,0001.5,0007.19,0012.45,0006.62
2023-04-24 06:58:00,,0826.4,5.00,0.00,24.9,23.3,00.0,33.3,26.5,12.9,0002.6,0007.23,0012.34,0006.65
2023-04-24 06:59:00,,0826.4,5.00,0.00,24.9,23.4,00.0,33.3,26.5,13.1,0003.1,0007.25,0013.08,0006.68
